FENGYUN 1C DEB

Satellite information

Favourite Embed

Satellite Type and Status

DEBRISIN ORBIT

Key statistics

Satellite FENGYUN 1C DEB at a glance.

Uptime

9555

Days in orbit

Revolutions

≈ 14.7

Per day

Orbit

SSO

Sun Synchronous Orbit

Inclination

99.0

Latest

Satellite identification and parameters

Extended collection of information and parameters for FENGYUN 1C DEB.

Object identification

Identified? True

Debris? True

Object name: FENGYUN 1C DEB

International designator: 1999-025DZG

Object number (NORAD): 36686

Object ID (CCSDS): 36686

Country: PEOPLES REPUBLIC OF CHINA (PRC)

Current information (Y/N): Y

RCS size: SMALL

Orbital parameters

Period: 97.676 minutes

Inclination: 99.0031 deg

SMA: 7025.617 km

Apoapsis: 724.685 km

Periapsis: 570.279 km

RAAN: 359.608 deg

Eccentricy: 0.0109888

Argument of periapsis: 194.0141 deg

Mean anomaly: 165.8008 deg

Mean motion: 14.7426674 rev/day

Mean motion (dot): 0.00006811 rev/day2

B* drag term: 0.00094318 1/REarth

Two-line elements (TLE)

Creation date: July 5, 2025, 5:45 p.m.

Reference frame: TEME

Reference center: EARTH

Epoch: July 5, 2025, 7:31 a.m. UTC

TLE line 0: 0 FENGYUN 1C DEB

TLE line 1: 1 36686U 99025DZG 25186.31366330 .00006811 00000-0 94318-3 0 9995

TLE line 2: 2 36686 99.0031 359.6080 0109888 194.0141 165.8008 14.74266740634864

Live tracking on map

Real-time ground track for satellite FENGYUN 1C DEB.

In-orbit conjunctions

A list of the most updated potential collisions computed for object FENGYUN 1C DEB.

Target Orbit TCA Probability of collision Miss distance Type
CZ-6A DEB SSO 2025-06-25 15:52:16 0.0001753909 326.0 (m) DEBRIS
CZ-6A DEB LEO 2025-01-01 16:09:24 0.0003757952 687.0 (m) DEBRIS

Associated space launch

Chinese polar orbiting meteorological satellite

FENGYUN 1C DEB was lifted into orbit during the mission ‘Long March 4B | Feng Yun 1C’, on board a Long March 4B space rocket.

The launch took place on May 10, 1999, 1:33 a.m. from Launch Complex 7.

For more information about the launch, click the button.

Launch to space Long March 4B | Feng Yun 1C
Long March 4B | Feng Yun 1C

Agency: N/A

Status: Launch Successful

Launch date: May 10, 1999, 1:33 a.m. UTC

Rocket: Long March 4B

Launch pad: Launch Complex 7

Location: Taiyuan Satellite Launch Center, People's Republic of China

...

Latest news about this satellite

There are no fresh news available about this satellite. Check back as we update our databases every day.


Newsletter sign-up

Weekly statistics, charts and insights to help you stay on top of the space industry.